sat.trackr.live / text

‹ back to catalog

STARLINK-11333 [DTC]

NORAD 62273 · 2024-237G

PAYLOAD ACTIVE UNKNOWN

§ Identity

Operator
Country
US
Launch date
2024-12-08
Launch site
AFETR
Launch vehicle
Mass (kg)
RCS (m²)

Purposes: comms

External: N2YO · Heavens-Above · Gunter

§ Orbital elements

Epoch: 2026-09-21T15:03:44.138016Z

Period
91.67 min
Inclination
43.0021°
Eccentricity
0.0002346
Mean motion
15.70877653 rev/d
Perigee alt
354.8 km
Apogee alt
358.0 km
Semi-major
6,734.5 km
B*
1.1682e-3
RAAN
315.9712°
Arg perigee
271.4612°
Mean anomaly
88.5987°
Rev number
10,386

§ Raw data

STARLINK-11333 [DTC]1 62273U 24237G   26264.62759419  .00152470  00000+0  11682-2 0  99992 62273  43.0021 315.9712 0002346 271.4612  88.5987 15.70877653103860

JSON: /api/v1/satellites/62273 · /tle

For live sub-satellite position, see the globe view (requires WebGL).

§ Visibility from observer

Set your observer location to see the next 7 days of passes ≥ 10°. The values pass through the URL so the page stays shareable.

No JS? Fill the form by hand. The geolocation button needs JavaScript.